Regional Weather Roundup
Issued by NWS

Home | Current Version | Previous Version | Graphics & Text | Print | Product List | Glossary On
Versions: 1 2 3 4 5 6 7 8 9 10 11 12 13 14 15 16 17 18 19 20 21 22 23 24 25 26 27 28 29 30 31 32 33 34 35 36 37 38 39 40 41 42 43 44 45 46 47 48 49 50
000
ASUS43 KFSD 071010
RWRSD

WEATHER ROUNDUP FOR SOUTH DAKOTA
NATIONAL WEATHER SERVICE SIOUX FALLS SD
500 AM CDT TUE JUL 07 2015

NOTE: "FAIR" INDICATES FEW OR NO CLOUDS BELOW 12,000 FEET WITH NO
SIGNIFICANT WEATHER AND/OR OBSTRUCTIONS TO VISIBILITY.


SDZ001>005-009-010-012>017-071100-
NORTHWEST AND NORTH CENTRAL SOUTH DAKOTA

CITY           SKY/WX    TMP DP  RH WIND       PRES   REMARKS
BUFFALO          N/A     54  50  86 E7        30.11F
FAITH            N/A     55  52  89 SE12      30.17F
MOBRIDGE       CLEAR     56  52  86 E7        30.17S
$$

SDZ012>016-024>037-041>051-057-063-072>074-071100-
SOUTHWEST AND SOUTH CENTRAL SOUTH DAKOTA

CITY           SKY/WX    TMP DP  RH WIND       PRES   REMARKS
RAPID CTY ARPT MOCLDY    57  55  93 SE3       30.17F
PIERRE         CLEAR     53  51  93 E6        30.17R FOG
CUSTER         PTCLDY    52  49  89 S3        30.26S FOG
ELLSWORTH AFB  PTCLDY    58  57  95 S3        30.16F
PHILIP         PTCLDY    56  55  97 E7        30.16F
PINE RIDGE     CLOUDY    60  53  77 S7        30.19F
SPEARFISH      FAIR      55  52  88 CALM      30.18S
WINNER         FAIR      57  52  83 SE7       30.18S HAZE
$$

SDZ004>011-016>023-039-040-071100-
NORTHEAST SOUTH DAKOTA

CITY           SKY/WX    TMP DP  RH WIND       PRES   REMARKS
ABERDEEN       CLEAR     51  48  89 NE3       30.20S
WATERTOWN      CLEAR     47  44  90 N5        30.18S
BROOKINGS      CLEAR     50  45  81 N5        30.19R
SISSETON         N/A     46  43  89 NW5       30.18S
$$

SDZ017-020-022-023-036>040-048>070-071100-
SOUTHEAST SOUTH DAKOTA

CITY           SKY/WX    TMP DP  RH WIND       PRES   REMARKS
SIOUX FALLS    CLEAR     51  48  89 N6        30.17R
HURON          CLEAR     52  51  97 N3        30.18R FOG
CHAMBERLAIN    CLEAR     55  53  94 CALM      30.18S
MITCHELL       CLEAR     55  54  96 CALM      30.18S FOG
YANKTON        CLEAR     52  48  87 N5        30.16R
$$

ABBREVIATIONS USED IN REMARKS
   TC - TEMPERATURE IN CELSIUS
  WCI - WIND CHILL INDEX
   HX - HEAT INDEX
  VSB - VISIBILITY




USA.gov is the U.S. government's official web portal to all federal, state and local government web resources and services.